Location: Ferchesar
(52.6477°N, 12.4298°E)
Time: 01:31:06
(UTC+01:00)

Transit 2A - Pass Details

Date: 14 December 2021
Orbit: 591 x 967 km, 66.7° (Epoch: 17 January)

Event Time Altitude Azimuth Distance (km) Brightness Sun altitude
Exits shadow 02:46:58 15° 48° (NE) 2,393 9.0 -47.5°
Drops below altitude 10° 02:48:15 10° 57° (ENE) 2,708 9.3 -47.3°
Sets 02:51:24 0° 72° (ENE) 3,633 10.2 -46.9°
